| time (UTC) | temp F | wind direction | speed knots | gust knots | rain 1hr in | rain 24hr in | rain mn in | humidity % | barometer mb |
| 20260903073656 | 144 | 154 | 1.7 | 8.7 | 0.00 | 0.00 | 0.00 | 100 | 1013.3 |
| 20260903073150 | 144 | 210 | 3.5 | 8.7 | 0.00 | 0.00 | 0.00 | 100 | 1013.4 |
| 20260903072629 | 144 | 161 | 4.3 | 7.0 | 0.00 | 0.00 | 0.00 | 100 | 1013.3 |
| 20260903072128 | 144 | 150 | 3.5 | 6.1 | 0.00 | 0.00 | 0.00 | 100 | 1013.4 |
| 20260903071630 | 144 | 113 | 2.6 | 7.8 | 0.00 | 0.00 | 0.00 | 100 | 1013.4 |
| 20260903071109 | 144 | 101 | 0.0 | 7.8 | 0.00 | 0.00 | 0.00 | 100 | 1013.5 |
| 20260903070834 | 144 | 170 | 4.3 | 7.0 | 0.00 | 0.00 | 0.00 | 100 | 1013.4 |
| 20260903065601 | 144 | 158 | 3.5 | 8.7 | 0.00 | 0.00 | 0.00 | 100 | 1013.4 |
| 20260903065331 | 144 | 163 | 4.3 | 7.8 | 0.00 | 0.00 | 0.00 | 100 | 1013.4 |
| 20260903064600 | 144 | 151 | 3.5 | 7.8 | 0.00 | 0.00 | 0.00 | 100 | 1013.4 |
| 20260903064100 | 144 | 135 | 0.0 | 5.2 | 0.00 | 0.00 | 0.00 | 100 | 1013.5 |
| 20260903063553 | 144 | 189 | 0.0 | 7.0 | 0.00 | 0.00 | 0.00 | 100 | 1013.5 |
| 20260903063041 | 144 | 195 | 1.7 | 10.4 | 0.00 | 0.00 | 0.00 | 100 | 1013.5 |
| 20260903062541 | 144 | 198 | 0.0 | 10.4 | 0.00 | 0.00 | 0.00 | 100 | 1013.5 |
| 20260903062036 | 144 | 195 | 3.5 | 8.7 | 0.00 | 0.00 | 0.00 | 100 | 1013.5 |
| 20260903061535 | 145 | 163 | 2.6 | 7.8 | 0.00 | 0.00 | 0.00 | 100 | 1013.5 |
| 20260903061035 | 145 | 135 | 5.2 | 8.7 | 0.00 | 0.00 | 0.00 | 100 | 1013.5 |
| 20260903060539 | 145 | 151 | 5.2 | 7.8 | 0.00 | 0.00 | 0.00 | 100 | 1013.5 |
| 20260903060535 | 145 | 181 | 3.5 | 8.7 | 0.00 | 0.00 | 0.00 | 100 | 1013.6 |
| 20260903055534 | 145 | 142 | 4.3 | 8.7 | 0.00 | 0.00 | 0.00 | 100 | 1013.4 |
| 20260903055033 | 145 | 158 | 3.5 | 8.7 | 0.00 | 0.00 | 0.00 | 100 | 1013.4 |
| 20260903054530 | 145 | 133 | 5.2 | 8.7 | 0.00 | 0.00 | 0.00 | 100 | 1013.3 |
| 20260903054025 | 145 | 199 | 6.1 | 10.4 | 0.00 | 0.00 | 0.00 | 100 | 1013.3 |
| 20260903053525 | 145 | 150 | 5.2 | 10.4 | 0.00 | 0.00 | 0.00 | 100 | 1013.3 |
| 20260903053023 | 145 | 125 | 4.3 | 7.8 | 0.00 | 0.00 | 0.00 | 100 | 1013.3 |
| 20260903052519 | 145 | 167 | 1.7 | 12.2 | 0.00 | 0.00 | 0.00 | 100 | 1013.2 |
| 20260903052017 | 145 | 163 | 6.1 | 12.2 | 0.00 | 0.00 | 0.00 | 100 | 1013.3 |
| 20260903051746 | 145 | 151 | 5.2 | 8.7 | 0.00 | 0.00 | 0.00 | 100 | 1013.2 |
| 20260903051016 | 145 | 151 | 0.0 | 9.6 | 0.00 | 0.00 | 0.00 | 100 | 1013.2 |
| 20260903050747 | 145 | 170 | 4.3 | 9.6 | 0.00 | 0.00 | 0.00 | 100 | 1013.2 |
| 20260903050232 | 145 | 142 | 3.5 | 9.6 | 0.00 | 0.00 | 0.00 | 100 | 1013.1 |
| 20260903045501 | 145 | 178 | 4.3 | 9.6 | 0.00 | 0.00 | 0.00 | 100 | 1013.2 |
| 20260903045000 | 145 | 150 | 0.9 | 8.7 | 0.00 | 0.00 | 0.00 | 100 | 1013.1 |
| 20260903044501 | 145 | 139 | 2.6 | 8.7 | 0.00 | 0.00 | 0.00 | 100 | 1013.2 |
| 20260903043958 | 145 | 130 | 2.6 | 6.1 | 0.00 | 0.00 | 0.00 | 100 | 1013.1 |
| 20260903043456 | 145 | 150 | 3.5 | 6.1 | 0.00 | 0.00 | 0.00 | 100 | 1013.1 |
| 20260903043227 | 145 | 126 | 0.9 | 7.0 | 0.00 | 0.00 | 0.00 | 100 | 1013.1 |
| 20260903042456 | 145 | 154 | 1.7 | 7.0 | 0.00 | 0.00 | 0.00 | 100 | 1013.1 |
| 20260903041956 | 145 | 154 | 1.7 | 7.0 | 0.00 | 0.00 | 0.00 | 100 | 1013.1 |
| 20260903041443 | 145 | 160 | 0.0 | 7.0 | 0.00 | 0.00 | 0.00 | 100 | 1013.1 |
| 20260903040925 | 145 | 88 | 2.6 | 5.2 | 0.00 | 0.00 | 0.00 | 100 | 1013.1 |
| 20260903040404 | 145 | 158 | 0.0 | 4.3 | 0.00 | 0.00 | 0.00 | 100 | 1013.1 |
| 20260903035856 | 145 | 97 | 0.0 | 4.3 | 0.00 | 0.00 | 0.00 | 100 | 1013.0 |
| 20260903035350 | 145 | 151 | 0.9 | 4.3 | 0.00 | 0.00 | 0.00 | 100 | 1013.1 |
| 20260903034847 | 145 | 129 | 1.7 | 6.1 | 0.00 | 0.00 | 0.00 | 100 | 1013.0 |
| 20260903034342 | 145 | 39 | 1.7 | 7.0 | 0.00 | 0.00 | 0.00 | 100 | 1013.0 |
| 20260903034058 | 145 | 74 | 1.7 | 9.6 | 0.00 | 0.00 | 0.00 | 100 | 1013.1 |
| 20260903033328 | 145 | 97 | 5.2 | 9.6 | 0.00 | 0.00 | 0.00 | 100 | 1013.2 |
| 20260903032829 | 145 | 106 | 4.3 | 9.6 | 0.00 | 0.00 | 0.00 | 100 | 1013.0 |
| 20260903032325 | 146 | 139 | 2.6 | 9.6 | 0.00 | 0.00 | 0.00 | 100 | 1012.9 |
| 20260903031825 | 146 | 135 | 0.0 | 3.5 | 0.00 | 0.00 | 0.00 | 100 | 1012.5 |
| 20260903031326 | 146 | 111 | 0.0 | 3.5 | 0.00 | 0.00 | 0.00 | 100 | 1012.5 |
| 20260903030804 | 146 | 28 | 0.0 | 9.6 | 0.00 | 0.00 | 0.00 | 100 | 1012.3 |
| 20260903030256 | 146 | 28 | 0.0 | 9.6 | 0.00 | 0.00 | 0.00 | 100 | 1012.3 |
| 20260903025756 | 146 | 122 | 0.0 | 0.0 | 0.00 | 0.00 | 0.00 | 100 | 1012.4 |
| 20260903025518 | 146 | 122 | 0.0 | 0.0 | 0.00 | 0.00 | 0.00 | 100 | 1012.1 |
| 20260903024743 | 146 | 122 | 0.0 | 0.0 | 0.00 | 0.00 | 0.00 | 100 | 1012.2 |
| 20260903024232 | 146 | 122 | 0.0 | 0.0 | 0.00 | 0.00 | 0.00 | 100 | 1011.9 |
| 20260903023711 | 146 | 122 | 0.0 | 0.0 | 0.00 | 0.00 | 0.00 | 100 | 1011.8 |
| 20260903023147 | 146 | 122 | 0.0 | 0.0 | 0.00 | 0.00 | 0.00 | 100 | 1011.8 |
| 20260903022644 | 146 | 122 | 0.0 | 0.0 | 0.00 | 0.00 | 0.00 | 100 | 1011.7 |
| 20260903022143 | 146 | 122 | 0.0 | 0.0 | 0.00 | 0.00 | 0.00 | 100 | 1011.6 |
| 20260903021626 | 146 | 122 | 0.0 | 0.0 | 0.00 | 0.00 | 0.00 | 100 | 1011.5 |
| 20260903021124 | 146 | 122 | 0.0 | 0.0 | 0.00 | 0.00 | 0.00 | 100 | 1011.4 |
| 20260903020612 | 146 | 122 | 0.0 | 0.0 | 0.00 | 0.00 | 0.00 | 100 | 1011.4 |
| 20260903020337 | 146 | 122 | 0.0 | 0.0 | 0.00 | 0.00 | 0.00 | 100 | 1011.2 |
| 20260903015546 | 146 | 122 | 0.0 | 0.0 | 0.00 | 0.00 | 0.00 | 100 | 1011.2 |
| 20260903015037 | 146 | 122 | 0.0 | 0.0 | 0.00 | 0.00 | 0.00 | 100 | 1011.1 |
| 20260903014535 | 146 | 122 | 0.0 | 0.0 | 0.00 | 0.00 | 0.00 | 100 | 1011.1 |
| 20260903014025 | 146 | 122 | 0.0 | 0.0 | 0.00 | 0.00 | 0.00 | 100 | 1011.0 |
| 20260903013521 | 146 | 122 | 0.0 | 0.0 | 0.00 | 0.00 | 0.00 | 100 | 1010.9 |
| 20260903012958 | 146 | 122 | 0.0 | 0.0 | 0.00 | 0.00 | 0.00 | 100 | 1010.9 |
| 20260903012726 | 146 | 122 | 0.0 | 0.0 | 0.00 | 0.00 | 0.00 | 100 | 1011.0 |
| 20260903012222 | 146 | 122 | 0.0 | 4.3 | 0.00 | 0.00 | 0.00 | 100 | 1011.0 |
| 20260903011710 | 146 | 122 | 0.0 | 4.3 | 0.00 | 0.00 | 0.00 | 100 | 1011.0 |
| 20260903011210 | 146 | 16 | 0.0 | 0.0 | 0.00 | 0.00 | 0.00 | 100 | 1010.9 |
| 20260903010438 | 146 | 16 | 0.0 | 0.0 | 0.00 | 0.00 | 0.00 | 100 | 1010.9 |
| 20260903005915 | 146 | 16 | 0.0 | 0.0 | 0.00 | 0.00 | 0.00 | 100 | 1010.9 |
| 20260903005414 | 147 | 16 | 0.0 | 0.0 | 0.00 | 0.00 | 0.00 | 100 | 1011.0 |
| 20260903004859 | 147 | 16 | 0.0 | 0.0 | 0.00 | 0.00 | 0.00 | 100 | 1011.0 |
| 20260903004341 | 147 | 16 | 0.0 | 0.0 | 0.00 | 0.00 | 0.00 | 100 | 1011.0 |
| 20260903003838 | 147 | 16 | 0.0 | 0.0 | 0.00 | 0.00 | 0.00 | 100 | 1010.9 |
| 20260903003325 | 147 | 16 | 0.0 | 0.0 | 0.00 | 0.00 | 0.00 | 100 | 1010.9 |
| 20260903002817 | 147 | 16 | 0.0 | 0.0 | 0.00 | 0.00 | 0.00 | 100 | 1010.8 |
| 20260903002306 | 147 | 16 | 0.0 | 0.9 | 0.00 | 0.00 | 0.00 | 100 | 1010.9 |
| 20260903002028 | 147 | 16 | 0.0 | 4.3 | 0.00 | 0.00 | 0.00 | 100 | 1010.9 |
| 20260903001246 | 147 | 16 | 0.9 | 4.3 | 0.00 | 0.00 | 0.00 | 100 | 1010.8 |
| 20260903000741 | 147 | 47 | 0.0 | 6.1 | 0.00 | 0.00 | 0.00 | 100 | 1010.8 |
| 20260903000229 | 147 | 54 | 1.7 | 7.8 | 0.00 | 0.00 | 0.00 | 100 | 1010.8 |
| 20260902235727 | 148 | 33 | 3.5 | 7.8 | 0.00 | 0.00 | 0.00 | 100 | 1010.9 |
| 20260902235227 | 148 | 0 | 3.5 | 9.6 | 0.00 | 0.00 | 0.00 | 100 | 1010.8 |
| 20260902234728 | 149 | 81 | 1.7 | 9.6 | 0.00 | 0.00 | 0.00 | 100 | 1010.8 |
| 20260902234230 | 149 | 125 | 0.0 | 2.6 | 0.00 | 0.00 | 0.00 | 100 | 1010.7 |
| 20260902233711 | 149 | 230 | 0.0 | 0.0 | 0.00 | 0.00 | 0.00 | 100 | 1010.7 |
| 20260902233210 | 149 | 230 | 0.0 | 0.0 | 0.00 | 0.00 | 0.00 | 100 | 1010.6 |
| 20260902232658 | 149 | 230 | 0.0 | 3.5 | 0.00 | 0.00 | 0.00 | 100 | 1010.7 |
| 20260902232157 | 150 | 230 | 0.0 | 4.3 | 0.00 | 0.00 | 0.00 | 100 | 1010.6 |
| 20260902231657 | 150 | 170 | 0.0 | 4.3 | 0.00 | 0.00 | 0.00 | 100 | 1010.6 |
| 20260902231427 | 150 | 299 | 0.0 | 3.5 | 0.00 | 0.00 | 0.00 | 100 | 1010.6 |
| 20260902230654 | 150 | 299 | 0.0 | 3.5 | 0.00 | 0.00 | 0.00 | 100 | 1010.6 |
| 20260902230154 | 150 | 164 | 0.0 | 5.2 | 0.00 | 0.00 | 0.00 | 100 | 1010.6 |
| 20260902225621 | 149 | 293 | 0.9 | 5.2 | 0.00 | 0.00 | 0.00 | 100 | 1010.6 |
| 20260902225113 | 150 | 285 | 0.0 | 3.5 | 0.00 | 0.00 | 0.00 | 100 | 1010.6 |
| 20260902224547 | 150 | 153 | 0.0 | 3.5 | 0.00 | 0.00 | 0.00 | 100 | 1010.6 |
| 20260902224316 | 150 | 326 | 0.9 | 3.5 | 0.00 | 0.00 | 0.00 | 100 | 1010.6 |
| 20260902223537 | 150 | 23 | 0.0 | 5.2 | 0.00 | 0.00 | 0.00 | 100 | 1010.6 |
| 20260902223017 | 150 | 23 | 2.6 | 5.2 | 0.00 | 0.00 | 0.00 | 100 | 1010.6 |
| 20260902222501 | 150 | 226 | 0.0 | 0.0 | 0.00 | 0.00 | 0.00 | 100 | 1010.7 |
| 20260902222222 | 150 | 226 | 0.0 | 0.0 | 0.00 | 0.00 | 0.00 | 100 | 1010.8 |
| 20260902221417 | 150 | 226 | 0.0 | 6.1 | 0.00 | 0.00 | 0.00 | 100 | 1010.7 |
| 20260902220858 | 150 | 226 | 0.0 | 6.1 | 0.00 | 0.00 | 0.00 | 100 | 1010.8 |
| 20260902220342 | 149 | 225 | 0.0 | 6.1 | 0.00 | 0.00 | 0.00 | 100 | 1010.9 |
| 20260902220055 | 149 | 250 | 0.9 | 6.1 | 0.00 | 0.00 | 0.00 | 100 | 1010.9 |
| 20260902215256 | 149 | 147 | 0.0 | 6.1 | 0.00 | 0.00 | 0.00 | 100 | 1010.9 |
| 20260902214744 | 149 | 229 | 2.6 | 6.1 | 0.00 | 0.00 | 0.00 | 100 | 1010.9 |
| 20260902214516 | 150 | 199 | 1.7 | 6.1 | 0.00 | 0.00 | 0.00 | 100 | 1011.0 |
| 20260902213742 | 150 | 255 | 1.7 | 6.1 | 0.00 | 0.00 | 0.00 | 100 | 1011.0 |
| 20260902213244 | 150 | 36 | 0.0 | 0.0 | 0.00 | 0.00 | 0.00 | 100 | 1011.0 |
| 20260902212743 | 149 | 36 | 0.0 | 0.0 | 0.00 | 0.00 | 0.00 | 100 | 1011.0 |
| 20260902212223 | 149 | 36 | 0.0 | 0.0 | 0.00 | 0.00 | 0.00 | 100 | 1011.1 |
| 20260902211659 | 149 | 36 | 0.0 | 0.0 | 0.00 | 0.00 | 0.00 | 100 | 1011.1 |
| 20260902211137 | 149 | 36 | 0.0 | 0.0 | 0.00 | 0.00 | 0.00 | 100 | 1011.1 |
| 20260902210617 | 150 | 36 | 0.0 | 0.0 | 0.00 | 0.00 | 0.00 | 100 | 1011.2 |
| 20260902210111 | 150 | 36 | 0.0 | 0.0 | 0.00 | 0.00 | 0.00 | 100 | 1011.2 |
| 20260902205604 | 149 | 36 | 0.0 | 0.9 | 0.00 | 0.00 | 0.00 | 100 | 1011.4 |
| 20260902205041 | 149 | 36 | 0.0 | 3.5 | 0.00 | 0.00 | 0.00 | 100 | 1011.5 |
| 20260902204534 | 151 | 36 | 0.0 | 6.1 | 0.00 | 0.00 | 0.00 | 100 | 1011.5 |
| 20260902204030 | 151 | 330 | 0.0 | 6.1 | 0.00 | 0.00 | 0.00 | 100 | 1011.6 |
| 20260902203526 | 151 | 2 | 0.9 | 5.2 | 0.00 | 0.00 | 0.00 | 100 | 1011.6 |
| 20260902203026 | 151 | 11 | 0.0 | 6.1 | 0.00 | 0.00 | 0.00 | 100 | 1011.7 |
| 20260902202526 | 150 | 28 | 2.6 | 6.1 | 0.00 | 0.00 | 0.00 | 100 | 1011.8 |
| 20260902202026 | 150 | 12 | 3.5 | 7.0 | 0.00 | 0.00 | 0.00 | 100 | 1011.9 |
| 20260902201526 | 150 | 312 | 3.5 | 7.0 | 0.00 | 0.00 | 0.00 | 100 | 1011.9 |
| 20260902201026 | 150 | 358 | 0.0 | 4.3 | 0.00 | 0.00 | 0.00 | 100 | 1011.9 |
| 20260902200523 | 150 | 358 | 0.0 | 4.3 | 0.00 | 0.00 | 0.00 | 100 | 1012.1 |
| 20260902200250 | 150 | 289 | 0.0 | 4.3 | 0.00 | 0.00 | 0.00 | 100 | 1012.1 |
| 20260902195516 | 151 | 264 | 0.9 | 5.2 | 0.00 | 0.00 | 0.00 | 100 | 1012.2 |
| 20260902195013 | 151 | 358 | 0.0 | 5.2 | 0.00 | 0.00 | 0.00 | 100 | 1012.2 |
| 20260902194515 | 151 | 180 | 0.0 | 0.0 | 0.00 | 0.00 | 0.00 | 100 | 1012.3 |
| 20260902194009 | 151 | 180 | 0.0 | 0.0 | 0.00 | 0.00 | 0.00 | 100 | 1012.4 |
| 20260902193458 | 151 | 180 | 0.0 | 2.6 | 0.00 | 0.00 | 0.00 | 100 | 1012.5 |
| 20260902192948 | 150 | 180 | 0.0 | 4.3 | 0.00 | 0.00 | 0.00 | 100 | 1012.6 |
| 20260902192443 | 150 | 358 | 0.9 | 4.3 | 0.00 | 0.00 | 0.00 | 100 | 1012.6 |
| 20260902191922 | 151 | 180 | 0.0 | 4.3 | 0.00 | 0.00 | 0.00 | 100 | 1012.9 |
| 20260902191417 | 151 | 188 | 0.0 | 4.3 | 0.00 | 0.00 | 0.00 | 100 | 1012.9 |
| 20260902190858 | 151 | 191 | 0.0 | 5.2 | 0.00 | 0.00 | 0.00 | 100 | 1012.9 |
| 20260902190348 | 151 | 272 | 3.5 | 5.2 | 0.00 | 0.00 | 0.00 | 100 | 1013.0 |
| 20260902185844 | 151 | 350 | 0.9 | 5.2 | 0.00 | 0.00 | 0.00 | 100 | 1013.1 |
| 20260902185325 | 150 | 52 | 0.0 | 6.1 | 0.00 | 0.00 | 0.00 | 100 | 1013.2 |
| 20260902184806 | 151 | 209 | 2.6 | 6.1 | 0.00 | 0.00 | 0.00 | 100 | 1013.3 |
| 20260902184307 | 151 | 295 | 0.0 | 4.3 | 0.00 | 0.00 | 0.00 | 100 | 1013.4 |
| 20260902183757 | 151 | 268 | 0.0 | 3.5 | 0.00 | 0.00 | 0.00 | 100 | 1013.5 |
| 20260902183246 | 151 | 40 | 0.0 | 5.2 | 0.00 | 0.00 | 0.00 | 100 | 1013.6 |
| 20260902182717 | 151 | 52 | 0.0 | 5.2 | 0.00 | 0.00 | 0.00 | 100 | 1013.8 |
| 20260902182217 | 151 | 196 | 0.0 | 5.2 | 0.00 | 0.00 | 0.00 | 100 | 1014.0 |
| 20260902181717 | 151 | 196 | 0.0 | 5.2 | 0.00 | 0.00 | 0.00 | 100 | 1014.1 |
| 20260902181200 | 151 | 241 | 0.0 | 5.2 | 0.00 | 0.00 | 0.00 | 100 | 1014.1 |
| 20260902180657 | 151 | 241 | 0.9 | 5.2 | 0.00 | 0.00 | 0.00 | 100 | 1014.3 |
| 20260902180158 | 151 | 198 | 0.9 | 5.2 | 0.00 | 0.00 | 0.00 | 100 | 1014.3 |
| 20260902175928 | 150 | 127 | 3.5 | 5.2 | 0.00 | 0.00 | 0.00 | 100 | 1014.4 |
| 20260902175158 | 151 | 225 | 0.9 | 5.2 | 0.00 | 0.00 | 0.00 | 100 | 1014.6 |
| 20260902174657 | 151 | 305 | 0.0 | 7.8 | 0.00 | 0.00 | 0.00 | 100 | 1014.6 |
| 20260902174156 | 151 | 355 | 4.3 | 7.8 | 0.00 | 0.00 | 0.00 | 100 | 1014.8 |
| 20260902173658 | 151 | 331 | 1.7 | 7.0 | 0.00 | 0.00 | 0.00 | 100 | 1014.8 |
| 20260902173156 | 151 | 326 | 0.9 | 7.0 | 0.00 | 0.00 | 0.00 | 100 | 1015.0 |
| 20260902172656 | 150 | 344 | 4.3 | 7.0 | 0.00 | 0.00 | 0.00 | 100 | 1015.0 |
| 20260902172156 | 150 | 219 | 2.6 | 5.2 | 0.00 | 0.00 | 0.00 | 100 | 1015.2 |
| 20260902171928 | 150 | 240 | 0.0 | 7.0 | 0.00 | 0.00 | 0.00 | 100 | 1015.2 |
| 20260902171156 | 150 | 0 | 3.5 | 7.0 | 0.00 | 0.00 | 0.00 | 100 | 1015.2 |
| 20260902170928 | 150 | 247 | 3.5 | 7.0 | 0.00 | 0.00 | 0.00 | 100 | 1015.2 |
| 20260902170149 | 150 | 358 | 2.6 | 7.0 | 0.00 | 0.00 | 0.00 | 100 | 1015.3 |
| 20260902165648 | 150 | 295 | 1.7 | 7.0 | 0.00 | 0.00 | 0.00 | 100 | 1015.3 |
| 20260902165148 | 150 | 334 | 1.7 | 7.0 | 0.00 | 0.00 | 0.00 | 100 | 1015.4 |
| 20260902164648 | 150 | 357 | 1.7 | 4.3 | 0.00 | 0.00 | 0.00 | 100 | 1015.6 |
| 20260902164145 | 149 | 236 | 0.0 | 4.3 | 0.00 | 0.00 | 0.00 | 100 | 1015.7 |
| 20260902163643 | 150 | 282 | 1.7 | 5.2 | 0.00 | 0.00 | 0.00 | 100 | 1015.8 |
| 20260902163142 | 149 | 302 | 0.0 | 7.8 | 0.00 | 0.00 | 0.00 | 100 | 1015.8 |
| 20260902162632 | 149 | 184 | 4.3 | 7.8 | 0.00 | 0.00 | 0.00 | 100 | 1015.9 |
| 20260902162128 | 149 | 219 | 3.5 | 7.8 | 0.00 | 0.00 | 0.00 | 100 | 1015.9 |
| 20260902161857 | 149 | 142 | 0.0 | 7.8 | 0.00 | 0.00 | 0.00 | 100 | 1015.9 |
| 20260902161113 | 149 | 201 | 0.0 | 5.2 | 0.00 | 0.00 | 0.00 | 100 | 1015.8 |
| 20260902160611 | 149 | 288 | 0.9 | 7.0 | 0.00 | 0.00 | 0.00 | 100 | 1015.8 |
| 20260902160605 | 149 | 338 | 1.7 | 7.0 | 0.00 | 0.00 | 0.00 | 100 | 1015.8 |
| 20260902155603 | 149 | 11 | 0.0 | 4.3 | 0.00 | 0.00 | 0.00 | 100 | 1015.9 |
| 20260902155047 | 148 | 358 | 0.9 | 4.3 | 0.00 | 0.00 | 0.00 | 100 | 1015.9 |
| 20260902154818 | 148 | 118 | 0.9 | 5.2 | 0.00 | 0.00 | 0.00 | 100 | 1015.8 |
| 20260902154316 | 148 | 227 | 1.7 | 6.1 | 0.00 | 0.00 | 0.00 | 100 | 1015.9 |
| 20260902153540 | 148 | 313 | 0.0 | 6.1 | 0.00 | 0.00 | 0.00 | 100 | 1015.9 |
| 20260902153302 | 148 | 291 | 2.6 | 5.2 | 0.00 | 0.00 | 0.00 | 100 | 1015.9 |
| 20260902152532 | 148 | 262 | 0.9 | 5.2 | 0.00 | 0.00 | 0.00 | 100 | 1015.9 |
| 20260902152011 | 147 | 240 | 2.6 | 6.1 | 0.00 | 0.00 | 0.00 | 100 | 1015.9 |
| 20260902151507 | 147 | 302 | 0.0 | 6.1 | 0.00 | 0.00 | 0.00 | 100 | 1015.8 |
| 20260902150956 | 147 | 345 | 0.9 | 4.3 | 0.00 | 0.00 | 0.00 | 100 | 1015.8 |
| 20260902150449 | 147 | 267 | 0.9 | 5.2 | 0.00 | 0.00 | 0.00 | 100 | 1015.7 |
| 20260902145941 | 147 | 223 | 1.7 | 5.2 | 0.00 | 0.00 | 0.00 | 100 | 1015.7 |
| 20260902145424 | 147 | 175 | 0.9 | 5.2 | 0.00 | 0.00 | 0.00 | 100 | 1015.7 |
| 20260902144918 | 146 | 337 | 2.6 | 6.1 | 0.00 | 0.00 | 0.00 | 100 | 1015.7 |
| 20260902144417 | 146 | 307 | 0.9 | 8.7 | 0.00 | 0.00 | 0.00 | 100 | 1015.7 |
| 20260902143914 | 146 | 63 | 2.6 | 8.7 | 0.00 | 0.00 | 0.00 | 100 | 1015.7 |
| 20260902143414 | 146 | 2 | 1.7 | 6.1 | 0.00 | 0.00 | 0.00 | 100 | 1015.7 |
| 20260902143140 | 146 | 210 | 0.9 | 7.0 | 0.00 | 0.00 | 0.00 | 100 | 1015.7 |
| 20260902142409 | 146 | 217 | 0.0 | 7.0 | 0.00 | 0.00 | 0.00 | 100 | 1015.6 |
| 20260902141909 | 146 | 199 | 0.0 | 7.0 | 0.00 | 0.00 | 0.00 | 100 | 1015.7 |
| 20260902141404 | 146 | 213 | 2.6 | 7.0 | 0.00 | 0.00 | 0.00 | 100 | 1015.6 |
| 20260902140859 | 146 | 151 | 2.6 | 6.1 | 0.00 | 0.00 | 0.00 | 100 | 1015.7 |
| 20260902140359 | 146 | 268 | 4.3 | 6.1 | 0.00 | 0.00 | 0.00 | 100 | 1015.7 |
| 20260902135858 | 146 | 299 | 0.9 | 4.3 | 0.00 | 0.00 | 0.00 | 100 | 1015.7 |
| 20260902135357 | 145 | 154 | 0.0 | 3.5 | 0.00 | 0.00 | 0.00 | 100 | 1015.6 |
| 20260902134856 | 145 | 206 | 0.0 | 3.5 | 0.00 | 0.00 | 0.00 | 100 | 1015.7 |
| 20260902134344 | 145 | 208 | 0.0 | 0.0 | 0.00 | 0.00 | 0.00 | 100 | 1015.6 |
| 20260902133832 | 145 | 208 | 0.0 | 2.6 | 0.00 | 0.00 | 0.00 | 100 | 1015.6 |
| 20260902133308 | 145 | 208 | 0.0 | 2.6 | 0.00 | 0.00 | 0.00 | 100 | 1015.6 |
| 20260902132758 | 145 | 135 | 0.0 | 0.0 | 0.00 | 0.00 | 0.00 | 100 | 1015.6 |
| 20260902132252 | 145 | 135 | 0.0 | 0.0 | 0.00 | 0.00 | 0.00 | 100 | 1015.4 |
| 20260902132020 | 144 | 135 | 0.0 | 0.0 | 0.00 | 0.00 | 0.00 | 100 | 1015.3 |
| 20260902131521 | 144 | 135 | 0.0 | 0.0 | 0.00 | 0.00 | 0.00 | 100 | 1015.3 |
| 20260902130738 | 144 | 135 | 0.0 | 0.0 | 0.00 | 0.00 | 0.00 | 100 | 1015.2 |
| 20260902130228 | 144 | 135 | 0.0 | 0.0 | 0.00 | 0.00 | 0.00 | 100 | 1015.2 |
| 20260902125725 | 144 | 135 | 0.0 | 0.0 | 0.00 | 0.00 | 0.00 | 100 | 1015.1 |
| 20260902125211 | 144 | 135 | 0.0 | 0.0 | 0.00 | 0.00 | 0.00 | 100 | 1015.2 |
| 20260902124659 | 143 | 135 | 0.0 | 0.0 | 0.00 | 0.00 | 0.00 | 100 | 1015.1 |
| 20260902124148 | 143 | 135 | 0.0 | 0.0 | 0.00 | 0.00 | 0.00 | 100 | 1015.1 |
| 20260902123635 | 143 | 135 | 0.0 | 0.0 | 0.00 | 0.00 | 0.00 | 100 | 1015.1 |
| 20260902123134 | 143 | 135 | 0.0 | 0.0 | 0.00 | 0.00 | 0.00 | 100 | 1015.0 |
| 20260902123129 | 143 | 135 | 0.0 | 0.0 | 0.00 | 0.00 | 0.00 | 100 | 1015.0 |
| 20260902122126 | 143 | 135 | 0.0 | 0.0 | 0.00 | 0.00 | 0.00 | 100 | 1015.0 |
| 20260902121610 | 143 | 135 | 0.0 | 0.0 | 0.00 | 0.00 | 0.00 | 100 | 1014.8 |
| 20260902121048 | 143 | 135 | 0.0 | 0.0 | 0.00 | 0.00 | 0.00 | 100 | 1014.9 |
| 20260902120528 | 143 | 135 | 0.0 | 0.0 | 0.00 | 0.00 | 0.00 | 100 | 1014.9 |
| 20260902120026 | 143 | 135 | 0.0 | 0.0 | 0.00 | 0.00 | 0.00 | 100 | 1014.9 |
| 20260902115527 | 143 | 135 | 0.0 | 0.0 | 0.00 | 0.00 | 0.00 | 100 | 1014.9 |
| 20260902115016 | 143 | 135 | 0.0 | 0.0 | 0.00 | 0.00 | 0.00 | 100 | 1014.8 |
| 20260902114502 | 143 | 135 | 0.0 | 0.0 | 0.00 | 0.00 | 0.00 | 100 | 1014.7 |
| 20260902113941 | 143 | 135 | 0.0 | 0.0 | 0.00 | 0.00 | 0.00 | 100 | 1014.7 |
| 20260902113916 | 143 | 135 | 0.0 | 0.0 | 0.00 | 0.00 | 0.00 | 100 | 1014.7 |
| 20260902112856 | 143 | 135 | 0.0 | 0.0 | 0.00 | 0.00 | 0.00 | 100 | 1014.7 |
| 20260902112333 | 143 | 135 | 0.0 | 0.0 | 0.00 | 0.00 | 0.00 | 100 | 1014.7 |
| 20260902111812 | 142 | 135 | 0.0 | 0.0 | 0.00 | 0.00 | 0.00 | 100 | 1014.7 |
| 20260902111305 | 143 | 135 | 0.0 | 0.0 | 0.00 | 0.00 | 0.00 | 100 | 1014.7 |
| 20260902110800 | 143 | 135 | 0.0 | 0.0 | 0.00 | 0.00 | 0.00 | 100 | 1014.7 |
| 20260902110252 | 143 | 135 | 0.0 | 0.0 | 0.00 | 0.00 | 0.00 | 100 | 1014.7 |
| 20260902105750 | 143 | 135 | 0.0 | 0.0 | 0.00 | 0.00 | 0.00 | 100 | 1014.6 |
| 20260902105242 | 144 | 135 | 0.0 | 0.0 | 0.00 | 0.00 | 0.00 | 100 | 1014.7 |
| 20260902104742 | 143 | 135 | 0.0 | 0.0 | 0.00 | 0.00 | 0.00 | 100 | 1014.7 |
| 20260902104235 | 144 | 135 | 0.0 | 0.0 | 0.00 | 0.00 | 0.00 | 100 | 1014.7 |
| 20260902103720 | 143 | 135 | 0.0 | 0.0 | 0.00 | 0.00 | 0.00 | 100 | 1014.7 |
| 20260902103213 | 144 | 135 | 0.0 | 0.0 | 0.00 | 0.00 | 0.00 | 100 | 1014.7 |
| 20260902102651 | 144 | 135 | 0.0 | 0.0 | 0.00 | 0.00 | 0.00 | 100 | 1014.7 |
| 20260902102130 | 144 | 135 | 0.0 | 0.0 | 0.00 | 0.00 | 0.00 | 100 | 1014.7 |
| 20260902102108 | 143 | 135 | 0.0 | 0.0 | 0.00 | 0.00 | 0.00 | 100 | 1014.7 |
| 20260902101045 | 143 | 135 | 0.0 | 0.0 | 0.00 | 0.00 | 0.00 | 100 | 1014.7 |
| 20260902100759 | 143 | 135 | 0.0 | 0.0 | 0.00 | 0.00 | 0.00 | 100 | 1014.6 |
| 20260902100026 | 143 | 135 | 0.0 | 0.0 | 0.00 | 0.00 | 0.00 | 100 | 1014.6 |
| 20260902095524 | 143 | 135 | 0.0 | 0.0 | 0.00 | 0.00 | 0.00 | 100 | 1014.7 |
| 20260902095004 | 143 | 135 | 0.0 | 0.0 | 0.00 | 0.00 | 0.00 | 100 | 1014.7 |
| 20260902094441 | 143 | 135 | 0.0 | 0.0 | 0.00 | 0.00 | 0.00 | 100 | 1014.7 |
| 20260902094207 | 143 | 135 | 0.0 | 0.0 | 0.00 | 0.00 | 0.00 | 100 | 1014.7 |
| 20260902093430 | 143 | 135 | 0.0 | 0.0 | 0.00 | 0.00 | 0.00 | 100 | 1014.7 |
| 20260902092916 | 143 | 135 | 0.0 | 0.0 | 0.00 | 0.00 | 0.00 | 100 | 1014.7 |
| 20260902092629 | 143 | 135 | 0.0 | 0.0 | 0.00 | 0.00 | 0.00 | 100 | 1014.7 |
| 20260902091856 | 143 | 135 | 0.0 | 0.0 | 0.00 | 0.00 | 0.00 | 100 | 1014.7 |
| 20260902091358 | 143 | 135 | 0.0 | 0.0 | 0.00 | 0.00 | 0.00 | 100 | 1014.7 |
| 20260902091055 | 143 | 135 | 0.0 | 0.0 | 0.00 | 0.00 | 0.00 | 100 | 1014.8 |
| 20260902090302 | 143 | 135 | 0.0 | 0.0 | 0.00 | 0.00 | 0.00 | 100 | 1014.8 |
| 20260902085746 | 144 | 135 | 0.0 | 0.0 | 0.00 | 0.00 | 0.00 | 100 | 1014.9 |
| 20260902085226 | 143 | 135 | 0.0 | 0.0 | 0.00 | 0.00 | 0.00 | 100 | 1014.9 |
| 20260902084715 | 143 | 135 | 0.0 | 0.0 | 0.00 | 0.00 | 0.00 | 100 | 1014.8 |
| 20260902084212 | 143 | 135 | 0.0 | 0.0 | 0.00 | 0.00 | 0.00 | 100 | 1014.8 |
| 20260902083922 | 143 | 135 | 0.0 | 0.0 | 0.00 | 0.00 | 0.00 | 100 | 1014.9 |
| 20260902083129 | 143 | 135 | 0.0 | 0.0 | 0.00 | 0.00 | 0.00 | 100 | 1014.8 |
| 20260902082615 | 143 | 135 | 0.0 | 0.0 | 0.00 | 0.00 | 0.00 | 100 | 1014.8 |
| 20260902082100 | 143 | 135 | 0.0 | 0.0 | 0.00 | 0.00 | 0.00 | 100 | 1014.8 |
| 20260902081828 | 143 | 135 | 0.0 | 0.0 | 0.00 | 0.00 | 0.00 | 100 | 1014.9 |
| 20260902081056 | 143 | 135 | 0.0 | 0.0 | 0.00 | 0.00 | 0.00 | 100 | 1014.9 |
| 20260902080547 | 143 | 135 | 0.0 | 0.0 | 0.00 | 0.00 | 0.00 | 100 | 1014.9 |
| 20260902080025 | 143 | 135 | 0.0 | 0.0 | 0.00 | 0.00 | 0.00 | 100 | 1014.9 |
| 20260902075504 | 143 | 135 | 0.0 | 0.0 | 0.00 | 0.00 | 0.00 | 100 | 1014.9 |
| 20260902074941 | 143 | 135 | 0.0 | 0.0 | 0.00 | 0.00 | 0.00 | 100 | 1014.9 |
| 20260902074420 | 143 | 135 | 0.0 | 0.0 | 0.00 | 0.00 | 0.00 | 100 | 1015.0 |